TimeCDT,TemperatureF,Dew PointF,Humidity,Sea Level PressureIn,VisibilityMPH,Wind Direction,Wind SpeedMPH,Gust SpeedMPH,PrecipitationIn,Events,Conditions,WindDirDegrees,DateUTC
12:15 AM,24.1,15.4,70,29.86,10.0,West,25.3,38.0,N/A,,Overcast,270,2013-03-19 05:15:00
12:35 AM,23.7,15.4,71,29.86,10.0,West,23.0,27.6,N/A,,Overcast,270,2013-03-19 05:35:00
12:55 AM,23.7,16.2,73,29.86,10.0,West,21.9,31.1,N/A,,Overcast,270,2013-03-19 05:55:00
1:15 AM,23.5,15.4,71,29.86,10.0,West,21.9,25.3,N/A,,Overcast,260,2013-03-19 06:15:00
1:35 AM,24.8,14.0,64,29.86,10.0,West,19.6,31.1,N/A,,Overcast,270,2013-03-19 06:35:00
1:55 AM,23.5,14.5,69,29.87,10.0,West,17.3,29.9,N/A,,Overcast,270,2013-03-19 06:55:00
2:15 AM,22.5,12.7,66,29.86,10.0,West,21.9,32.2,N/A,,Scattered Clouds,270,2013-03-19 07:15:00
2:35 AM,21.7,13.1,69,29.85,10.0,West,23.0,27.6,N/A,,Clear,270,2013-03-19 07:35:00
2:55 AM,21.6,13.1,70,29.86,10.0,West,19.6,24.2,N/A,,Clear,270,2013-03-19 07:55:00
3:15 AM,21.2,13.6,73,29.87,10.0,West,16.1,20.7,N/A,,Clear,270,2013-03-19 08:15:00
3:35 AM,21.6,13.1,70,29.88,10.0,West,20.7,-,N/A,,Scattered Clouds,270,2013-03-19 08:35:00
3:55 AM,21.9,14.2,72,29.88,10.0,West,17.3,23.0,N/A,,Overcast,260,2013-03-19 08:55:00
4:15 AM,21.6,13.3,70,29.88,10.0,West,19.6,29.9,N/A,,Mostly Cloudy,260,2013-03-19 09:15:00
4:35 AM,21.2,12.9,70,29.88,10.0,West,21.9,32.2,N/A,,Scattered Clouds,260,2013-03-19 09:35:00
4:55 AM,20.7,12.2,70,29.89,10.0,West,21.9,-,N/A,,Scattered Clouds,260,2013-03-19 09:55:00
5:15 AM,20.3,13.5,75,29.90,10.0,West,17.3,20.7,N/A,,Clear,260,2013-03-19 10:15:00
5:35 AM,20.3,12.9,73,29.90,10.0,West,20.7,25.3,N/A,,Clear,260,2013-03-19 10:35:00
5:55 AM,20.3,11.8,70,29.91,10.0,West,20.7,32.2,N/A,,Clear,260,2013-03-19 10:55:00
6:15 AM,19.9,11.3,69,29.92,10.0,West,18.4,26.5,N/A,,Clear,260,2013-03-19 11:15:00
6:35 AM,19.8,12.2,72,29.92,10.0,West,18.4,27.6,N/A,,Clear,260,2013-03-19 11:35:00
6:55 AM,19.4,11.3,71,29.92,10.0,West,19.6,27.6,N/A,,Clear,260,2013-03-19 11:55:00
7:15 AM,19.4,11.7,72,29.93,10.0,West,21.9,28.8,N/A,,Clear,260,2013-03-19 12:15:00
7:35 AM,19.9,11.3,69,29.93,10.0,West,21.9,29.9,N/A,,Clear,270,2013-03-19 12:35:00
7:55 AM,20.1,10.6,67,29.93,10.0,West,23.0,34.5,N/A,,Scattered Clouds,270,2013-03-19 12:55:00
8:15 AM,20.7,10.9,66,29.94,10.0,West,20.7,31.1,N/A,,Clear,270,2013-03-19 13:15:00
8:35 AM,21.2,10.4,63,29.95,10.0,West,26.5,33.4,N/A,,Clear,270,2013-03-19 13:35:00
8:55 AM,21.7,10.6,62,29.96,10.0,West,27.6,36.8,N/A,,Clear,270,2013-03-19 13:55:00
9:15 AM,22.6,10.9,61,29.96,10.0,West,28.8,33.4,N/A,,Clear,270,2013-03-19 14:15:00
9:35 AM,23.4,11.1,60,29.96,10.0,West,28.8,35.7,N/A,,Clear,270,2013-03-19 14:35:00
9:55 AM,23.7,11.3,59,29.97,10.0,West,26.5,34.5,N/A,,Clear,270,2013-03-19 14:55:00
10:15 AM,24.8,11.5,57,29.98,10.0,West,25.3,32.2,N/A,,Clear,270,2013-03-19 15:15:00
10:35 AM,25.7,12.0,56,29.99,10.0,West,25.3,34.5,N/A,,Scattered Clouds,270,2013-03-19 15:35:00
10:55 AM,26.8,12.9,56,30.00,10.0,West,24.2,34.5,N/A,,Clear,270,2013-03-19 15:55:00
11:15 AM,27.7,13.1,54,30.00,10.0,West,26.5,36.8,N/A,,Clear,270,2013-03-19 16:15:00
11:35 AM,28.4,14.2,55,30.00,10.0,West,28.8,33.4,N/A,,Clear,270,2013-03-19 16:35:00
11:55 AM,29.3,14.2,53,30.02,10.0,West,27.6,36.8,N/A,,Clear,270,2013-03-19 16:55:00
12:15 PM,29.7,14.5,53,30.02,10.0,West,29.9,38.0,N/A,,Clear,270,2013-03-19 17:15:00
12:35 PM,30.6,15.4,54,30.02,10.0,West,28.8,36.8,N/A,,Clear,270,2013-03-19 17:35:00
12:55 PM,30.2,14.0,51,30.03,10.0,West,25.3,35.7,N/A,,Clear,270,2013-03-19 17:55:00
1:15 PM,31.6,16.3,53,30.03,10.0,West,28.8,38.0,N/A,,Clear,270,2013-03-19 18:15:00
1:35 PM,32.0,16.3,52,30.04,10.0,West,26.5,35.7,N/A,,Clear,270,2013-03-19 18:35:00
1:55 PM,32.5,16.2,51,30.04,10.0,West,24.2,35.7,N/A,,Clear,270,2013-03-19 18:55:00
2:15 PM,32.9,17.1,52,30.04,10.0,West,24.2,35.7,N/A,,Clear,260,2013-03-19 19:15:00
2:35 PM,33.6,16.9,50,30.04,10.0,West,26.5,34.5,N/A,,Clear,260,2013-03-19 19:35:00
2:55 PM,34.2,18.1,52,30.05,10.0,West,27.6,34.5,N/A,,Clear,270,2013-03-19 19:55:00
3:15 PM,34.7,17.8,50,30.05,10.0,West,23.0,35.7,N/A,,Clear,270,2013-03-19 20:15:00
3:35 PM,34.9,17.8,50,30.05,10.0,West,20.7,33.4,N/A,,Clear,270,2013-03-19 20:35:00
3:55 PM,34.9,15.3,45,30.05,10.0,West,23.0,33.4,N/A,,Clear,280,2013-03-19 20:55:00
4:15 PM,35.6,17.8,48,30.05,10.0,West,21.9,29.9,N/A,,Clear,260,2013-03-19 21:15:00
4:35 PM,35.8,18.0,48,30.06,10.0,West,24.2,31.1,N/A,,Clear,270,2013-03-19 21:35:00
4:55 PM,35.8,17.6,48,30.06,10.0,West,24.2,31.1,N/A,,Clear,270,2013-03-19 21:55:00
5:15 PM,36.0,18.5,49,30.06,10.0,West,25.3,31.1,N/A,,Clear,270,2013-03-19 22:15:00
5:35 PM,35.6,17.8,48,30.07,10.0,West,24.2,27.6,N/A,,Clear,270,2013-03-19 22:35:00
5:55 PM,35.4,17.1,47,30.07,10.0,West,19.6,27.6,N/A,,Clear,270,2013-03-19 22:55:00
6:15 PM,34.7,17.8,50,30.08,10.0,West,19.6,26.5,N/A,,Clear,270,2013-03-19 23:15:00
6:35 PM,33.6,17.6,52,30.09,10.0,West,18.4,24.2,N/A,,Clear,270,2013-03-19 23:35:00
6:55 PM,32.5,18.5,56,30.09,10.0,West,17.3,25.3,N/A,,Clear,270,2013-03-19 23:55:00
7:15 PM,32.0,19.0,59,30.09,10.0,West,12.7,-,N/A,,Clear,260,2013-03-20 00:15:00
7:35 PM,32.0,18.9,58,30.09,10.0,West,16.1,20.7,N/A,,Clear,260,2013-03-20 00:35:00
7:55 PM,31.5,19.0,60,30.10,10.0,West,13.8,19.6,N/A,,Scattered Clouds,270,2013-03-20 00:55:00
8:15 PM,31.1,19.0,61,30.10,10.0,West,13.8,18.4,N/A,,Clear,270,2013-03-20 01:15:00
8:35 PM,31.1,17.8,58,30.10,10.0,West,15.0,24.2,N/A,,Scattered Clouds,260,2013-03-20 01:35:00
8:55 PM,31.5,17.1,55,30.11,10.0,West,15.0,19.6,N/A,,Overcast,270,2013-03-20 01:55:00
9:15 PM,30.2,18.0,60,30.11,10.0,West,12.7,19.6,N/A,,Scattered Clouds,270,2013-03-20 02:15:00
9:35 PM,29.7,18.5,63,30.11,10.0,West,12.7,-,N/A,,Clear,260,2013-03-20 02:35:00
9:55 PM,29.1,18.9,66,30.11,10.0,West,11.5,-,N/A,,Clear,260,2013-03-20 02:55:00
10:15 PM,28.6,19.0,67,30.11,10.0,West,11.5,-,N/A,,Clear,270,2013-03-20 03:15:00
10:35 PM,28.4,19.4,69,30.11,10.0,West,11.5,-,N/A,,Clear,270,2013-03-20 03:35:00
10:55 PM,28.4,18.7,67,30.10,10.0,West,12.7,-,N/A,,Clear,280,2013-03-20 03:55:00
11:15 PM,28.4,18.5,66,30.10,10.0,West,15.0,19.6,N/A,,Clear,280,2013-03-20 04:15:00
11:35 PM,28.0,18.1,66,30.10,10.0,West,12.7,-,N/A,,Clear,280,2013-03-20 04:35:00
11:55 PM,28.0,17.1,63,30.09,10.0,West,11.5,19.6,N/A,,Clear,280,2013-03-20 04:55:00